TimeEDT,TemperatureF,Dew PointF,Humidity,Sea Level PressureIn,VisibilityMPH,Wind Direction,Wind SpeedMPH,Gust SpeedMPH,PrecipitationIn,Events,Conditions,WindDirDegrees,DateUTC
12:53 AM,64.0,62.1,93,29.60,10.0,Calm,Calm,-,N/A,,Clear,0,2013-06-29 04:53:00
1:18 AM,64.4,62.6,94,29.63,10.0,SSW,6.9,-,N/A,,Mostly Cloudy,200,2013-06-29 05:18:00
1:35 AM,64.4,62.6,94,29.63,10.0,SSW,5.8,-,N/A,,Overcast,200,2013-06-29 05:35:00
1:53 AM,64.0,61.0,90,29.60,10.0,SSW,5.8,-,N/A,,Scattered Clouds,210,2013-06-29 05:53:00
2:53 AM,63.0,61.0,93,29.60,10.0,SSW,6.9,-,N/A,,Clear,200,2013-06-29 06:53:00
3:53 AM,62.1,60.1,93,29.59,10.0,SSW,5.8,-,N/A,,Clear,200,2013-06-29 07:53:00
4:01 AM,62.6,60.8,94,29.62,10.0,SSW,4.6,-,N/A,,Partly Cloudy,210,2013-06-29 08:01:00
4:17 AM,62.6,60.8,94,29.62,10.0,SSW,4.6,-,N/A,,Mostly Cloudy,210,2013-06-29 08:17:00
4:53 AM,63.0,61.0,93,29.60,10.0,SSW,5.8,-,N/A,,Overcast,200,2013-06-29 08:53:00
5:53 AM,63.0,61.0,93,29.61,10.0,Variable,5.8,-,N/A,,Overcast,0,2013-06-29 09:53:00
6:53 AM,64.0,61.0,90,29.62,10.0,Calm,Calm,-,N/A,,Overcast,0,2013-06-29 10:53:00
7:53 AM,64.9,61.0,87,29.64,10.0,Variable,4.6,-,N/A,,Mostly Cloudy,0,2013-06-29 11:53:00
8:21 AM,66.2,60.8,83,29.66,10.0,South,4.6,-,N/A,,Scattered Clouds,190,2013-06-29 12:21:00
8:53 AM,66.9,61.0,81,29.64,10.0,SSE,5.8,-,N/A,,Clear,160,2013-06-29 12:53:00
9:53 AM,71.1,61.0,70,29.65,10.0,Variable,6.9,-,N/A,,Clear,0,2013-06-29 13:53:00
10:53 AM,73.9,62.1,66,29.63,10.0,Variable,4.6,-,N/A,,Clear,0,2013-06-29 14:53:00
11:53 AM,75.0,60.1,60,29.64,10.0,Variable,5.8,-,N/A,,Scattered Clouds,0,2013-06-29 15:53:00
12:53 PM,73.9,61.0,64,29.65,10.0,SSW,5.8,-,N/A,,Mostly Cloudy,200,2013-06-29 16:53:00
1:53 PM,78.1,60.1,54,29.63,10.0,SSW,8.1,-,N/A,,Partly Cloudy,200,2013-06-29 17:53:00
2:53 PM,77.0,61.0,58,29.62,10.0,Variable,5.8,-,N/A,,Clear,0,2013-06-29 18:53:00
3:53 PM,75.0,62.1,64,29.64,10.0,SSW,4.6,-,N/A,,Mostly Cloudy,200,2013-06-29 19:53:00
4:53 PM,75.0,64.0,69,29.63,10.0,SSW,3.5,-,0.01,Rain,Light Rain,200,2013-06-29 20:53:00
5:53 PM,73.0,62.1,68,29.64,10.0,SSW,4.6,-,0.00,,Mostly Cloudy,210,2013-06-29 21:53:00
6:53 PM,72.0,66.0,81,29.66,10.0,Calm,Calm,-,0.00,Rain,Light Rain,0,2013-06-29 22:53:00
7:53 PM,71.1,66.0,84,29.67,10.0,Calm,Calm,-,0.00,,Scattered Clouds,0,2013-06-29 23:53:00
8:53 PM,69.1,66.9,93,29.69,10.0,Calm,Calm,-,N/A,,Mostly Cloudy,0,2013-06-30 00:53:00
9:53 PM,68.0,66.0,93,29.70,10.0,South,4.6,-,N/A,,Mostly Cloudy,170,2013-06-30 01:53:00
10:53 PM,69.1,64.9,87,29.71,10.0,Calm,Calm,-,N/A,,Partly Cloudy,0,2013-06-30 02:53:00
11:53 PM,66.9,64.0,90,29.71,10.0,Calm,Calm,-,N/A,,Scattered Clouds,0,2013-06-30 03:53:00